• In Hungary
  • List of Countries
  • For 7 days
  • Water Temperature
  • Satellite Maps
  • Weather Map
  • News
  • Weather Widgets
  • user-avatar
    Login

    Hourly Weather Matyunino

    Today, 22 June, Friday

    Time Temperature Precipitation Wind Pressure Humidity
    00:00 +16°C° 0 mm 2 mps 745 mmHg 89%
    01:00 +16°C° 0 mm 1 mps 745 mmHg 89%
    02:00 +16°C° 0 mm 1 mps 745 mmHg 89%
    03:00 +14°C° 0 mm 0 mps 745 mmHg 90%
    04:00 +16°C° 0 mm 1 mps 745 mmHg 88%
    05:00 +18°C° 0 mm 1 mps 745 mmHg 86%
    06:00 +18°C° 0 mm 2 mps 745 mmHg 84%
    07:00 +20°C° 0 mm 2 mps 745 mmHg 79%
    08:00 +21°C° 0 mm 3 mps 745 mmHg 74%
    09:00 +24°C° 0 mm 3 mps 745 mmHg 69%
    10:00 +25°C° 0 mm 4 mps 745 mmHg 65%
    11:00 +26°C° 0 mm 4 mps 745 mmHg 61%
    12:00 +28°C° 0 mm 4 mps 744 mmHg 57%
    13:00 +28°C° 0 mm 4 mps 744 mmHg 57%
    14:00 +28°C° 0 mm 5 mps 744 mmHg 58%
    15:00 +29°C° 0 mm 5 mps 744 mmHg 58%
    16:00 +28°C° 0 mm 4 mps 743 mmHg 62%
    17:00 +28°C° 0 mm 4 mps 743 mmHg 65%
    18:00 +28°C° 0 mm 3 mps 743 mmHg 69%
    19:00 +26°C° 0 mm 3 mps 743 mmHg 75%
    20:00 +25°C° 0 mm 3 mps 743 mmHg 82%
    21:00 +22°C° 0 mm 3 mps 743 mmHg 88%
    22:00 +21°C° 0 mm 3 mps 743 mmHg 90%
    23:00 +21°C° 0 mm 3 mps 743 mmHg 92%

    Tomorrow, 23 June, Saturday

    Time Temperature Precipitation Wind Pressure Humidity
    00:00 +20°C° 0 mm 3 mps 743 mmHg 94%
    01:00 +20°C° 0 mm 3 mps 743 mmHg 94%
    02:00 +19°C° 0 mm 3 mps 743 mmHg 94%
    03:00 +19°C° 0 mm 3 mps 743 mmHg 94%
    04:00 +19°C° 0 mm 3 mps 744 mmHg 92%
    05:00 +20°C° 0 mm 3 mps 744 mmHg 90%
    06:00 +20°C° 0 mm 3 mps 744 mmHg 88%
    07:00 +22°C° 0 mm 3 mps 744 mmHg 82%
    08:00 +25°C° 0 mm 4 mps 744 mmHg 76%
    09:00 +26°C° 0 mm 4 mps 744 mmHg 70%
    10:00 +27°C° 0 mm 4 mps 744 mmHg 65%
    11:00 +28°C° 0 mm 5 mps 744 mmHg 60%
    12:00 +29°C° 0 mm 5 mps 744 mmHg 55%
    13:00 +30°C° 0 mm 5 mps 743 mmHg 55%
    14:00 +30°C° 0 mm 5 mps 743 mmHg 54%
    15:00 +30°C° 0 mm 5 mps 743 mmHg 54%
    16:00 +30°C° 0 mm 5 mps 743 mmHg 58%
    17:00 +29°C° 0 mm 4 mps 743 mmHg 62%
    18:00 +29°C° 0 mm 3 mps 743 mmHg 66%
    19:00 +27°C° 0 mm 3 mps 743 mmHg 71%
    20:00 +25°C° 0 mm 3 mps 743 mmHg 76%
    21:00 +24°C° 0 mm 3 mps 742 mmHg 81%
    22:00 +22°C° 0 mm 4 mps 742 mmHg 81%
    23:00 +22°C° 0 mm 4 mps 742 mmHg 81%

    Day after tomorrow, 24 June, Sunday

    Time Temperature Precipitation Wind Pressure Humidity
    00:00 +21°C° 0 mm 4 mps 742 mmHg 81%
    01:00 +21°C° 0 mm 4 mps 742 mmHg 81%
    02:00 +20°C° 0 mm 4 mps 742 mmHg 82%
    03:00 +20°C° 0 mm 4 mps 742 mmHg 82%
    04:00 +20°C° 0 mm 4 mps 742 mmHg 80%
    05:00 +20°C° 0 mm 5 mps 742 mmHg 78%
    06:00 +20°C° 0 mm 5 mps 741 mmHg 76%
    07:00 +21°C° 0 mm 6 mps 741 mmHg 72%
    08:00 +22°C° 0 mm 6 mps 741 mmHg 67%
    09:00 +23°C° 0 mm 6 mps 741 mmHg 62%
    10:00 +24°C° 0 mm 6 mps 742 mmHg 61%
    11:00 +24°C° 0 mm 6 mps 742 mmHg 61%
    12:00 +26°C° 0 mm 6 mps 742 mmHg 60%
    13:00 +26°C° 0.2 mm 6 mps 742 mmHg 64%
    14:00 +25°C° 0.2 mm 5 mps 743 mmHg 69%
    15:00 +23°C° 0.2 mm 5 mps 743 mmHg 73%
    16:00 +22°C° 0.3 mm 4 mps 743 mmHg 78%
    17:00 +21°C° 0.3 mm 4 mps 743 mmHg 82%
    18:00 +20°C° 0.3 mm 4 mps 744 mmHg 86%
    19:00 +19°C° 0.2 mm 3 mps 744 mmHg 88%
    20:00 +18°C° 0.2 mm 3 mps 744 mmHg 91%
    21:00 +16°C° 0.2 mm 2 mps 745 mmHg 93%
    22:00 +15°C° 0 mm 2 mps 745 mmHg 92%
    23:00 +15°C° 0 mm 2 mps 746 mmHg 92%

    25 June, Monday

    Time Temperature Precipitation Wind Pressure Humidity
    00:00 +14°C° 0 mm 2 mps 746 mmHg 91%
    01:00 +13°C° 0 mm 2 mps 746 mmHg 92%
    02:00 +13°C° 0 mm 2 mps 747 mmHg 93%
    03:00 +12°C° 0 mm 2 mps 747 mmHg 93%
    04:00 +13°C° 0 mm 2 mps 747 mmHg 92%
    05:00 +13°C° 0 mm 2 mps 748 mmHg 90%
    06:00 +14°C° 0 mm 2 mps 748 mmHg 89%
    07:00 +15°C° 0 mm 2 mps 748 mmHg 81%
    08:00 +17°C° 0 mm 2 mps 748 mmHg 73%
    09:00 +19°C° 0 mm 2 mps 748 mmHg 66%
    10:00 +20°C° 0 mm 2 mps 748 mmHg 61%
    11:00 +21°C° 0 mm 2 mps 748 mmHg 57%
    12:00 +23°C° 0 mm 2 mps 748 mmHg 52%
    13:00 +23°C° 0 mm 2 mps 748 mmHg 52%
    14:00 +24°C° 0 mm 2 mps 748 mmHg 51%
    15:00 +24°C° 0 mm 2 mps 748 mmHg 51%
    16:00 +24°C° 0 mm 2 mps 748 mmHg 53%
    17:00 +23°C° 0 mm 2 mps 748 mmHg 55%
    18:00 +23°C° 0 mm 2 mps 748 mmHg 57%
    19:00 +20°C° 0 mm 2 mps 749 mmHg 64%
    20:00 +18°C° 0 mm 2 mps 749 mmHg 70%
    21:00 +17°C° 0 mm 2 mps 749 mmHg 76%
    22:00 +16°C° 0 mm 2 mps 749 mmHg 79%
    23:00 +15°C° 0 mm 2 mps 749 mmHg 81%

    26 June, Tuesday

    Time Temperature Precipitation Wind Pressure Humidity
    00:00 +14°C° 0 mm 2 mps 749 mmHg 84%
    01:00 +14°C° 0 mm 1 mps 749 mmHg 86%
    02:00 +14°C° 0 mm 1 mps 749 mmHg 87%
    03:00 +13°C° 0 mm 1 mps 750 mmHg 89%
    04:00 +14°C° 0 mm 1 mps 750 mmHg 87%
    05:00 +15°C° 0 mm 1 mps 750 mmHg 85%
    06:00 +16°C° 0 mm 1 mps 750 mmHg 83%
    07:00 +19°C° 0 mm 1 mps 750 mmHg 77%
    08:00 +21°C° 0 mm 1 mps 750 mmHg 71%
    09:00 +23°C° 0 mm 1 mps 750 mmHg 65%
    10:00 +24°C° 0 mm 1 mps 750 mmHg 60%
    11:00 +25°C° 0 mm 1 mps 750 mmHg 55%
    12:00 +26°C° 0 mm 1 mps 749 mmHg 51%
    13:00 +26°C° 0 mm 1 mps 749 mmHg 50%
    14:00 +26°C° 0 mm 1 mps 749 mmHg 48%
    15:00 +26°C° 0 mm 2 mps 749 mmHg 47%
    16:00 +26°C° 0 mm 2 mps 749 mmHg 50%
    17:00 +26°C° 0 mm 2 mps 749 mmHg 53%
    18:00 +25°C° 0 mm 2 mps 749 mmHg 56%
    19:00 +23°C° 0 mm 2 mps 749 mmHg 62%
    20:00 +20°C° 0 mm 2 mps 749 mmHg 67%
    21:00 +18°C° 0 mm 2 mps 749 mmHg 73%
    22:00 +18°C° 0 mm 2 mps 749 mmHg 74%
    23:00 +17°C° 0 mm 2 mps 749 mmHg 75%

    27 June, Wednesday

    Time Temperature Precipitation Wind Pressure Humidity
    00:00 +16°C° 0 mm 2 mps 749 mmHg 76%
    01:00 +16°C° 0 mm 2 mps 749 mmHg 78%
    02:00 +15°C° 0 mm 2 mps 749 mmHg 80%
    03:00 +15°C° 0 mm 2 mps 749 mmHg 83%
    04:00 +15°C° 0 mm 2 mps 749 mmHg 81%
    05:00 +16°C° 0 mm 2 mps 749 mmHg 80%
    06:00 +17°C° 0 mm 2 mps 749 mmHg 79%
    07:00 +19°C° 0 mm 2 mps 749 mmHg 73%
    08:00 +20°C° 0 mm 2 mps 749 mmHg 67%
    09:00 +22°C° 0 mm 3 mps 749 mmHg 61%
    10:00 +25°C° 0 mm 2 mps 748 mmHg 57%
    11:00 +26°C° 0 mm 2 mps 748 mmHg 52%
    12:00 +27°C° 0 mm 2 mps 748 mmHg 48%
    13:00 +28°C° 0 mm 2 mps 748 mmHg 46%
    14:00 +28°C° 0 mm 2 mps 748 mmHg 44%
    15:00 +29°C° 0 mm 2 mps 747 mmHg 42%
    16:00 +28°C° 0 mm 2 mps 747 mmHg 46%
    17:00 +28°C° 0 mm 2 mps 747 mmHg 50%
    18:00 +27°C° 0 mm 1 mps 747 mmHg 54%
    19:00 +25°C° 0 mm 2 mps 747 mmHg 58%
    20:00 +23°C° 0 mm 2 mps 747 mmHg 61%
    21:00 +21°C° 0 mm 2 mps 747 mmHg 65%
    22:00 +20°C° 0 mm 2 mps 747 mmHg 64%
    23:00 +20°C° 0 mm 2 mps 747 mmHg 64%
    Show more